Regional Weather Roundup
Issued by NWS

Home | Current Version | Previous Version | Text Only | Print | Product List | Glossary On
Versions: 1 2 3 4 5 6 7 8 9 10 11 12 13 14 15 16 17 18 19 20 21 22 23 24 25 26 27 28 29 30 31 32 33 34 35 36 37 38 39 40 41 42 43 44 45 46 47 48 49 50
000
ASUS44 KFWD 021615
RWRTX
NORTH TEXAS HOURLY WEATHER ROUNDUP
NATIONAL WEATHER SERVICE FORT WORTH TX
1100 AM CDT WED SEP 02 2015

NOTE: "FAIR" INDICATES FEW OR NO CLOUDS BELOW 12,000 FEET WITH NO
SIGNIFICANT WEATHER AND/OR OBSTRUCTIONS TO VISIBILITY.

TXZ118-119-021700-
DALLAS/FORT WORTH METROPLEX

CITY           SKY/WX    TMP DP  RH WIND       PRES   REMARKS
DFW AIRPORT    MOSUNNY   84  66  54 S8        30.07F
DALLAS LOVE    MOSUNNY   83  67  58 SW5       30.07F
FTW MEACHAM    SUNNY     85  66  53 SW8       30.06F
DAL-EXECUTIVE  SUNNY     83  66  56 VRB6      30.08S
FTW-ALLIANCE   MOSUNNY   86  64  47 S9        30.07F
FTW-NAS-JRB    SUNNY     85  66  53 VRB7      30.07F
FTW-SPINKS     SUNNY     84  66  54 S6        30.09F
ARLINGTON      SUNNY     84  65  52 SE5       30.07F
GRAND PRAIRIE  SUNNY     82  70  65 S7        30.09F
ADDISON        MOSUNNY   82  64  54 S7        30.08
MESQUITE       SUNNY     82  66  57 SW5       30.08F
LANCASTER      SUNNY     83  65  54 SW3       30.09S
$$

TXZ091>094-102>105-117-120-121-131>134-021700-
NORTH CENTRAL TEXAS

CITY           SKY/WX    TMP DP  RH WIND       PRES   REMARKS
SHRMAN/DENISON SUNNY     87  67  52 S10       30.09S
GAINESVILLE    SUNNY     85  63  47 S13G18    30.09S
BOWIE          SUNNY     84  65  52 S7        30.07S
BRIDGEPORT     SUNNY     86  66  50 S9        30.08F
DECATUR        SUNNY     83  62  48 S8G16     30.08F
DENTON         SUNNY     85  65  51 S13G20    30.07F
MCKINNEY       SUNNY     84  66  54 S10       30.07F
GREENVILLE     SUNNY     86  64  48 SW3       30.09F
ROCKWALL       SUNNY     82  69  64 S3        30.08S
TERRELL        SUNNY     83  68  60 S6        30.09S
WAXAHACHIE     MOSUNNY   83  69  63 W6        30.10S
CLEBURNE         N/A     81  70  69 SW6       30.10S
GRANBURY       SUNNY     84  65  52 S6        30.08F
$$

TXZ083>090-098>101-113>116-127>130-139>142-154-155-021700-
WESTERN NORTH TEXAS

CITY           SKY/WX    TMP DP  RH WIND       PRES   REMARKS
WICHITA FALLS  SUNNY     85  67  54 S12       30.04S
WF-KICKAPOO    SUNNY     86  66  50 S9        30.06S
VERNON         SUNNY     85  60  42 SW10G16   30.04F
ABILENE        SUNNY     84  66  54 SW13      30.09S
ABILENE-DYESS  SUNNY     85  68  56 S10       30.07S
BRECKENRIDGE   SUNNY     87  64  45 S8        30.06S
GRAHAM         SUNNY     87  67  51 SE6       30.04F
MINERAL WELLS  SUNNY     83  68  60 S8        30.06F
STEPHENVILLE   SUNNY     81  65  58 SW5       30.12S
COMANCHE         N/A     84  64  50 S7        30.09S
BROWNWOOD      SUNNY     82  66  57 SE7       30.09S
COLEMAN        SUNNY     82  67  60 S3        30.10S
BRADY          SUNNY     82  66  57 S6        30.09F
$$

TXZ143>147-156>162-174-175-021700-
CENTRAL TEXAS

CITY           SKY/WX    TMP DP  RH WIND       PRES   REMARKS
WACO           PTSUNNY   82  69  64 S7        30.08S
WACO-TSTC      PTSUNNY   82  68  61 S6        30.08S
WACO-MCGREGOR  PTSUNNY   81  70  69 S7        30.08S
HILLSBORO      SUNNY     81  69  65 S6        30.09S
CORSICANA      SUNNY     82  68  62 SW5       30.09S
MEXIA          PTSUNNY   81  69  66 N3G18     30.08S
HEARNE         MOSUNNY   82  70  67 CALM      30.07S
CAMERON        MOSUNNY   81  71  70 CALM      30.07S
TEMPLE         MOSUNNY   81  66  61 S9        30.08S
KILLEEN        MOSUNNY   80  67  64 VRB6      30.08S
KILLEEN-SKYLRK PTSUNNY   79  66  65 S3        30.08S
FORT HOOD      MOSUNNY   81  68  65 VRB5      30.07S
GATESVILLE     MOSUNNY   82  66  57 SE8       30.11R
HAMILTON       SUNNY     83  64  51 S7        30.10S
$$

TXZ095>097-106>112-122>126-135>138-148>153-164>167-021700-
EAST TEXAS

CITY           SKY/WX    TMP DP  RH WIND       PRES   REMARKS
PARIS          SUNNY     84  64  51 S6        30.09F
SULPHUR SPRNGS SUNNY     85  65  51 S3        30.11F
MOUNT PLEASANT SUNNY     84  65  51 CALM      30.10F
GILMER         SUNNY     81  69  67 CALM      30.10S
MINEOLA        SUNNY     84  66  54 SW3       30.10F
TYLER          SUNNY     83  66  56 SW5       30.09S
LONGVIEW       MOSUNNY   82  71  69 CALM      30.09S
MARSHALL       MOSUNNY   82  73  74 CALM      30.11S
ATHENS         SUNNY     81  66  61 SE6       30.08S
JACKSONVILLE   MOSUNNY   80  70  70 NE3       30.11F
HENDERSON      MOSUNNY   81  69  68 CALM      30.10S
CENTER         FAIR      85  69  59 CALM      30.07F
NACOGDOCHES    SUNNY     84  70  61 SE3       30.07S
LUFKIN         SUNNY     86  62  44 S3        30.07R
$$

SUPPLEMENTAL OBSERVATIONS (CENTRAL)

CITY           SKY/WX    TMP DP  RH WIND       PRES   REMARKS
LAKE TEXOMA      N/A     82  64  54 SW7         N/A
PAT MAYSE LAKE   N/A     82  68  61 SW2         N/A
LAKE LIMESTONE   N/A     88  68  51 SE3         N/A  HX  91
MCGREGOR         N/A     84  68  58 S7          N/A
$$

SUPPLEMENTAL OBSERVATIONS (WEST)

CITY           SKY/WX    TMP DP  RH WIND       PRES   REMARKS
MILLERS CREEK    N/A     88  66  48 SW12        N/A  HX  90
COMANCHE         N/A     84  66  54 S7          N/A
HAMBY            N/A     84  64  51 SW12        N/A
$$

SUPPLEMENTAL OBSERVATIONS (EAST)

CITY           SKY/WX    TMP DP  RH WIND       PRES   REMARKS
CLARKSVILLE      N/A     88  66  48 SW5         N/A  HX  90
TEXARKANA        N/A     84  72  65 SW2         N/A
LINDEN           N/A     86  70  58 N2          N/A  HX  90
CADDO LAKE       N/A     82  73  74 NE2         N/A
GILMER           N/A     86  68  54 E2          N/A
HENDERSON        N/A     82  68  61 E3          N/A
N SABINE NF      N/A     90  75  62 MISG        N/A  HX 100
S SABINE NF      N/A     84  68  58 N3          N/A
$$

SUPPLEMENTAL OBSERVATIONS ARE A COLLECTION OF AUTOMATED INSTRUMENTS
THAT ARE MAINTAINED BY A VARIETY OF FEDERAL AND STATE AGENCIES.
CERTAIN ELEMENTS...SUCH AS HUMIDITY VALUES AND SUSTAINED WIND
SPEEDS...MAY BE APPROXIMATED.




USA.gov is the U.S. government's official web portal to all federal, state and local government web resources and services.